[[{"header":{"parameterUnit":"m.s-1","parameterCategory":1,"la1":30.2991,"la2":30.254,"lo1":-89.0895,"lo2":-89.0444,"dy":0.0017,"dx":0.0017,"nx":28,"ny":28,"refTime":"2024-02-12T09:00:00:Z","depth":0,"parameterNumber":2,"parameterNumberName":"U-component_of_WINDS"},"data":[0,0,0,0,0,0,0,0,0,0,0,0,0,0,0,0,0,0,0,0,0,0,0,0,0,0,0,0,0,0,0,0,0,0,0,0,0,0,0,0,0,0,0,0,0,0,0,0,0,0,0,0,0,0,0,0,0,0,3.9389,3.9387,0,3.9178,3.9176,3.9173,3.8966,3.8964,3.8961,3.8958,3.8747,3.8744,3.8741,0,0,0,0,0,0,0,0,0,0,0,0,0,3.9622,3.9619,3.9389,3.9387,3.9384,3.9179,3.9176,3.9173,3.8967,3.8964,3.896,3.8957,3.8748,3.8744,3.874,0,0,0,0,0,0,0,0,0,0,0,0,0,3.9477,3.9618,3.939,3.9257,3.9242,3.9179,3.9175,3.9172,3.8968,3.8964,3.8959,3.8956,3.8749,3.8744,3.874,3.8792,0,0,3.8725,3.8723,0,0,0,0,0,0,0,0,3.9486,3.9469,3.9279,3.9266,3.925,3.9094,3.918,3.9045,3.8969,3.9072,3.8958,3.8954,3.8866,3.8851,3.8821,3.8782,3.8773,3.8725,3.8722,3.872,3.8719,0,0,0,0,0,0,0,3.9496,3.9477,3.9306,3.9276,3.9259,3.921,3.9185,3.9153,3.8995,3.9063,3.9047,3.9025,3.8857,3.8826,3.8814,3.877,3.8725,3.8721,3.8718,3.8716,3.877,3.8774,0,0,0,0,0,0,3.9525,3.9486,3.9312,3.9299,3.936,3.9209,3.9181,3.9148,3.8994,3.8967,3.9029,3.9016,3.8836,3.882,3.8806,3.886,3.872,3.8716,3.8713,3.8765,3.8771,3.8775,0,0,0,0,0,0,3.9531,3.9512,3.9321,3.9389,3.9361,3.9209,3.9175,3.9146,3.9114,3.8968,3.894,3.9025,3.8832,3.8813,3.8798,3.885,3.8714,3.8709,3.876,3.8767,3.8773,3.8968,0,0,0,0,0,0,3.9539,3.9515,3.9531,3.9391,3.9358,3.9315,3.9178,3.9145,3.9107,3.9088,3.8957,3.8932,3.8827,3.8806,3.8794,3.8841,3.8706,3.8755,3.8763,3.8771,3.8956,3.898,3.9001,0,0,0,0,0,3.9548,3.9595,3.9533,3.9513,3.9375,3.9318,3.93,3.9177,3.9112,3.9128,3.9035,3.8936,3.8847,3.8806,3.879,3.8837,3.8751,3.8761,3.877,3.8946,3.8976,3.9,0,0,0,0,0,0,3.9745,3.9573,3.9503,3.9506,3.9428,3.9283,3.93,3.9211,3.9151,3.9137,3.8988,3.8961,3.8965,3.8899,3.8857,3.8883,3.8786,3.8792,3.8925,3.8952,3.8974,3.899,3.8702,0,0,0,0,0,3.979,3.9756,3.9608,3.9625,3.9589,3.9453,3.9423,3.9336,3.925,3.9216,3.9121,3.9044,3.8998,3.8971,3.8921,3.8946,3.8917,3.8971,3.8994,3.9013,3.9021,3.9034,3.9057,3.8806,3.8806,3.8806,0,0,3.988,3.9782,3.9769,3.9662,3.9591,3.9563,3.9426,3.94,3.9379,3.9212,3.9193,3.9122,3.9026,3.9033,3.9031,3.8979,3.9084,3.9025,3.9041,3.9038,3.9046,3.907,3.9091,3.8813,3.8812,3.8811,0,0,4.003,3.9951,3.9958,3.9891,3.9786,3.9696,3.9698,3.9567,3.9514,3.9492,3.9368,3.9342,3.9265,3.9203,3.9161,3.9295,3.9203,3.9283,3.9399,3.9414,3.9433,3.945,3.9501,3.952,3.9291,3.9291,3.9292,0,4.0155,4.0105,3.9973,3.9956,3.9915,3.9763,3.9772,3.9713,3.9599,3.9575,3.9518,3.9422,3.9346,3.9338,3.9372,3.9342,3.9343,3.9296,3.9441,3.9456,3.947,3.9517,3.9536,3.9302,3.9301,3.93,3.9299,0,4.0267,4.0235,4.0253,4.0147,4.0107,4.0103,3.9974,3.995,3.9868,3.9785,3.9768,3.9672,3.9602,3.9594,3.9512,3.9576,3.9547,3.9468,3.9367,3.9507,3.9548,3.9565,3.9317,3.9313,3.931,3.9307,0,0,4.0532,4.0356,4.0365,4.0317,4.0193,4.0167,4.0159,4.0089,4.0074,4.0001,3.9993,3.9934,3.9861,3.9814,3.9725,3.9738,3.9854,3.9657,3.9653,3.9699,3.9923,3.9985,4.0007,3.9793,3.9796,3.9798,3.9932,0,4.0663,4.0636,4.052,4.0529,4.05,4.0359,4.0352,4.0278,4.0201,4.0167,4.0083,4.0045,3.9949,3.9921,3.9927,3.9839,3.9898,3.9828,3.9786,3.9786,3.9815,4.0028,4.0092,4.0222,3.9947,3.9949,3.9951,0,4.081,4.0749,4.0755,4.0636,4.062,4.0615,4.0545,4.0514,4.0428,4.0372,4.0323,4.0224,4.0211,4.0117,4.0099,4.0054,4.0031,3.9986,3.9988,3.998,3.9878,4.0028,4.0261,4.0282,3.9975,3.9973,3.9971,0,4.1008,4.0926,4.092,4.0883,4.0743,4.0744,4.0686,4.0596,4.0564,4.0503,4.0481,4.0421,4.0389,4.0346,4.0235,4.0176,4.0231,4.0127,4.0186,4.019,4.0204,4.0204,4.0438,4.0188,4.0187,4.0187,4.0187,0,4.1166,4.1176,4.1007,4.1004,4.1013,4.0881,4.0894,4.0823,4.0745,4.0728,4.0602,4.059,4.0443,4.0415,4.0329,4.0329,4.0315,4.0271,4.0248,4.0283,4.0289,4.0265,4.0254,4.0192,4.0191,4.019,4.0189,0,4.1387,4.1273,4.1258,4.1128,4.1096,4.1109,4.0999,4.0992,4.091,4.089,4.0878,4.0749,4.0709,4.0595,4.0526,4.0468,4.0494,4.045,4.0523,4.0509,4.0575,4.0572,4.0803,4.0828,4.0562,4.0564,4.0567,0,4.1496,4.15,4.1372,4.1352,4.1299,4.1267,4.1234,4.1106,4.1077,4.0983,4.0989,4.0939,4.0893,4.0837,4.0739,4.0687,4.0641,4.0726,4.0632,4.0669,4.0645,4.0647,4.0648,4.0747,4.075,4.0753,4.0756,0,4.1702,4.1647,4.1603,4.1542,4.1506,4.1452,4.139,4.1381,4.1238,4.1213,4.1171,4.1135,4.1066,4.102,4.0954,4.0896,4.0804,4.0786,4.0798,4.0833,4.0876,4.0856,4.0581,4.0781,4.0779,4.0777,4.0775,4.0774,4.1871,4.1871,4.1782,4.1739,4.1679,4.1626,4.1615,4.1532,4.1494,4.1427,4.1355,4.1323,4.1241,4.1142,4.1092,4.1066,4.1017,4.1033,4.1037,4.1043,4.106,4.0881,4.1054,4.1053,4.1052,4.1051,4.1051,0,4.2073,4.201,4.1972,4.1891,4.1859,4.1774,4.1703,4.1682,4.1655,4.1586,4.1544,4.1498,4.1454,4.1354,4.1301,4.13,4.1257,4.1291,4.129,4.1279,4.1107,4.1103,4.1327,4.1327,4.1327,4.1327,4.1327,4.1327,4.2175,4.2171,4.2106,4.2073,4.2009,4.1976,4.1943,4.1895,4.184,4.1794,4.1757,4.1692,4.1612,4.1553,4.151,4.1482,4.1469,4.1518,4.1477,4.1317,4.1291,4.1266,4.1262,4.1516,4.1516,4.1651,4.1652,4.1653]},{"header":{"parameterUnit":"m.s-1","parameterCategory":1,"la1":30.2991,"la2":30.254,"lo1":-89.0895,"lo2":-89.0444,"dy":0.0017,"dx":0.0017,"nx":28,"ny":28,"refTime":"2024-02-12T09:00:00:Z","depth":0,"parameterNumber":3,"parameterNumberName":"V-component_of_WINDS"},"data":[0,0,0,0,0,0,0,0,0,0,0,0,0,0,0,0,0,0,0,0,0,0,0,0,0,0,0,0,0,0,0,0,0,0,0,0,0,0,0,0,0,0,0,0,0,0,0,0,0,0,0,0,0,0,0,0,0,0,1.5088,1.5093,0,1.5574,1.5579,1.5585,1.5782,1.5781,1.578,1.5779,1.6275,1.6289,1.6303,0,0,0,0,0,0,0,0,0,0,0,0,0,1.4325,1.4338,1.5087,1.5094,1.51,1.5573,1.558,1.5586,1.5782,1.5781,1.578,1.5778,1.627,1.6287,1.6304,0,0,0,0,0,0,0,0,0,0,0,0,0,1.4718,1.4342,1.5086,1.5255,1.5274,1.5572,1.558,1.5588,1.5783,1.5781,1.5779,1.5778,1.6264,1.6285,1.6306,1.6471,0,0,1.6371,1.6381,0,0,0,0,0,0,0,0,1.4695,1.4745,1.5224,1.5244,1.5266,1.5616,1.5493,1.5884,1.5783,1.559,1.5779,1.5777,1.6057,1.6095,1.619,1.6495,1.6516,1.6373,1.6386,1.6396,1.6402,0,0,0,0,0,0,0,1.4668,1.4726,1.528,1.523,1.5257,1.5304,1.5358,1.5568,1.5826,1.5606,1.5622,1.5677,1.6068,1.6169,1.6203,1.6523,1.6373,1.6392,1.6405,1.6413,1.6986,1.6988,0,0,0,0,0,0,1.4613,1.4702,1.5264,1.5294,1.4971,1.5319,1.538,1.5505,1.5825,1.5872,1.5678,1.5684,1.6133,1.6178,1.6221,1.6436,1.6395,1.6415,1.6428,1.6984,1.6986,1.6989,0,0,0,0,0,0,1.4596,1.4661,1.5245,1.5003,1.508,1.5334,1.5473,1.5516,1.5617,1.5879,1.5925,1.5734,1.6133,1.6191,1.6408,1.6455,1.6425,1.6444,1.6981,1.6984,1.6988,1.6865,0,0,0,0,0,0,1.4573,1.4654,1.4721,1.5003,1.5093,1.5424,1.5477,1.5526,1.5653,1.5666,1.5944,1.5988,1.6137,1.6374,1.6429,1.6484,1.6461,1.6978,1.6982,1.6987,1.6866,1.6864,1.6862,0,0,0,0,0,1.4545,1.4667,1.4723,1.479,1.5182,1.5427,1.5478,1.5648,1.5656,1.5725,1.5892,1.5979,1.644,1.6395,1.6458,1.652,1.6975,1.6981,1.6986,1.6867,1.6864,1.6862,0,0,0,0,0,0,1.4385,1.4707,1.4773,1.499,1.5179,1.5459,1.5552,1.564,1.583,1.5835,1.6036,1.6096,1.6296,1.643,1.6373,1.6696,1.6714,1.6732,1.6602,1.6602,1.66,1.6565,1.6479,0,0,0,0,0,1.4374,1.4548,1.4819,1.4984,1.5076,1.5296,1.5409,1.5523,1.5727,1.5808,1.5992,1.6186,1.6375,1.6495,1.6684,1.6884,1.6947,1.6958,1.6956,1.6953,1.6967,1.7082,1.709,1.7007,1.7007,1.7007,0,0,1.4355,1.4553,1.465,1.4957,1.5117,1.5291,1.5363,1.5544,1.5675,1.5836,1.6053,1.6192,1.6422,1.6631,1.6732,1.6749,1.7004,1.696,1.6956,1.6973,1.7089,1.7096,1.7103,1.701,1.701,1.7009,0,0,1.441,1.4576,1.4732,1.489,1.5132,1.5277,1.5313,1.558,1.568,1.5899,1.6023,1.618,1.6501,1.666,1.6782,1.689,1.6977,1.6945,1.6937,1.7046,1.7053,1.706,1.7099,1.7111,1.6958,1.6958,1.6958,0,1.4356,1.4624,1.48,1.4975,1.5105,1.5258,1.5416,1.556,1.585,1.5936,1.5949,1.6354,1.652,1.6767,1.6793,1.6887,1.6934,1.6917,1.7038,1.7047,1.7056,1.7095,1.7109,1.6952,1.6953,1.6954,1.6954,0,1.4546,1.4729,1.4825,1.5101,1.5242,1.5406,1.5606,1.5727,1.5826,1.5969,1.6189,1.6391,1.6623,1.6689,1.6789,1.695,1.6953,1.6999,1.7023,1.7055,1.7096,1.7112,1.6945,1.6947,1.6948,1.695,0,0,1.4518,1.4886,1.4918,1.5045,1.5319,1.5464,1.5633,1.586,1.5959,1.6152,1.6299,1.6565,1.6609,1.6747,1.6865,1.6961,1.7033,1.6996,1.7005,1.6997,1.7223,1.7188,1.7203,1.709,1.7094,1.7097,1.7204,0,1.461,1.4924,1.5085,1.5328,1.5499,1.5643,1.5791,1.5974,1.6111,1.6274,1.6425,1.661,1.6654,1.6738,1.6839,1.7003,1.7082,1.6997,1.7229,1.7235,1.717,1.7224,1.7189,1.728,1.7221,1.7224,1.7226,0,1.4762,1.4953,1.5213,1.5466,1.5543,1.5673,1.5892,1.6047,1.6256,1.6348,1.65,1.6615,1.6798,1.6803,1.7057,1.6996,1.7099,1.7193,1.7201,1.7232,1.7234,1.7257,1.7314,1.7328,1.7253,1.725,1.7249,0,1.4716,1.5038,1.5235,1.5338,1.5638,1.5726,1.5854,1.6062,1.6187,1.6377,1.6459,1.6667,1.6781,1.6939,1.7106,1.7095,1.7343,1.7363,1.7424,1.742,1.7473,1.7468,1.7548,1.7535,1.7535,1.7535,1.7534,0,1.4804,1.4958,1.5218,1.534,1.5515,1.5697,1.5865,1.6004,1.6187,1.6337,1.6473,1.661,1.6821,1.6984,1.7115,1.7305,1.7355,1.7434,1.7468,1.7424,1.7414,1.7497,1.7495,1.7539,1.7538,1.7537,1.7536,0,1.4785,1.4965,1.519,1.5454,1.5523,1.5641,1.5867,1.5989,1.613,1.6317,1.6371,1.6593,1.6792,1.6973,1.7237,1.7325,1.7517,1.7559,1.7447,1.7465,1.7517,1.751,1.7656,1.7684,1.7648,1.7648,1.7648,0,1.483,1.4952,1.5228,1.5338,1.5464,1.564,1.5767,1.5949,1.6076,1.6321,1.6413,1.6621,1.6798,1.7107,1.7292,1.7493,1.7542,1.7579,1.7573,1.7524,1.7544,1.7535,1.7548,1.7577,1.7577,1.7576,1.7576,0,1.4892,1.4975,1.5154,1.5363,1.5511,1.5684,1.5862,1.5943,1.6158,1.6293,1.6498,1.6634,1.6902,1.7107,1.7328,1.746,1.7554,1.7575,1.7601,1.7558,1.7489,1.7528,1.7443,1.7572,1.7573,1.7573,1.7573,1.7573,1.4909,1.5023,1.5234,1.5428,1.558,1.5742,1.5869,1.6025,1.6199,1.6432,1.6528,1.6735,1.6938,1.7246,1.7375,1.7539,1.7558,1.7594,1.7604,1.7611,1.7602,1.7459,1.758,1.758,1.7581,1.7581,1.7581,0,1.4979,1.5121,1.5297,1.5541,1.5692,1.5765,1.5964,1.6086,1.6267,1.6449,1.6619,1.6852,1.705,1.7248,1.7456,1.7549,1.7597,1.7597,1.7594,1.7622,1.7573,1.7531,1.7555,1.7555,1.7555,1.7555,1.7555,1.7555,1.5033,1.523,1.5336,1.5608,1.575,1.5954,1.6061,1.621,1.6356,1.6611,1.6776,1.6903,1.7091,1.7313,1.7497,1.755,1.7621,1.761,1.7674,1.7626,1.7626,1.7626,1.7588,1.7623,1.7623,1.7711,1.7712,1.7712]}]]